Find FUSION 1

NORAD ID: 62674 Int'l Des: NNA 2025-009 Owner: SEIREN Country: J operational
LEOCIRCULARRETROGRADESSO

实时位置

正在加载3D地球...

关于 FUSION 1

正在加载描述...

即将过境

Passes for default location (London). Set your location on the main map for personalized predictions.

高度历史

Loading altitude history...

两行轨道根数

1 62674U 25009BT 26104.20013168 .00005619 00000-0 20330-3 0 9997
2 62674 97.4065 186.8970 0005294 164.9590 195.1808 15.28814538126782
Epoch: Apr 14, 2026 • Age: 29 hours

当前状态

高度 491.2 km
速度 7.63 km/s
星下点 80.61°N, 73.52°E
发射日期 Jan 14, 2025
运行时间 1.2 years
类型 other

技术详情

分类 Payload
质量 5.00 kg
干质量 5.00 kg
总质量 5.00 kg
长度 0.30 m
直径 0.10 m
跨度 0.30 m
形状 Box+2 pan
制造商 SEIREN
平台类型 Cubesat 3U
阶段状态 In Orbit
所有者/国家 SEIREN/J

Most Searched